Weather History for McGregor Range Base Camp, NM, NM

Change the Weather History Date:

Thursday, March 20, 2014

  Actual Average Record
Temperature  
Mean Temperature 58 °F -  
Max Temperature 74 °F - - ()
Min Temperature 42 °F - - ()
Degree Days  
Heating Degree Days 7    
Growing Degree Days 8 (Base 50)    
Moisture  
Dew Point 13 °F    
Average Humidity 18    
Maximum Humidity 31    
Minimum Humidity 9    
Precipitation  
Precipitation 0.00 in - - ()
Sea Level Pressure  
Sea Level Pressure 29.96 in    
Wind  
Wind Speed 0 mph (North)    
Max Wind Speed 0 mph    
Max Gust Speed -    
Visibility 10 miles    
Events      
T = Trace of Precipitation, MM = Missing Value Source: NWS Daily Summary

Daily Weather History Graph

Daily Weather History Graph

Search for Another Location

Airport:

Trip Planner

Search our weather history database for the weather conditions in past years. The results will help you decide how hot, cold, wet, or windy it might be!

Date:

Astronomy

Mar. 20, 2014 Rise Set
Actual Time 7:08 AM MDT 7:16 PM MDT
Civil Twilight 6:43 AM MDT 7:40 PM MDT
Nautical Twilight 6:15 AM MDT 8:09 PM MDT
Astronomical Twilight 5:46 AM MDT 8:37 PM MDT
Moon 11:23 PM MDT (3/20) 9:30 AM MDT (3/20)
Length of Visible Light 12h 56m
Length of Day
12h 07m
Waning Gibbous, 83% of the Moon is Illuminated
Mar 20
Waning Gibbous
Mar 23
Last Quarter
Mar 30
New
Apr 7
First Quarter
Apr 15
Full

Hourly Weather History & Observations

Time (MDT) Temp. Dew Point Humidity Pressure Visibility Wind Dir Wind Speed Gust Speed Precip Events Conditions
12:56 AM 53.2 °F 15.1 °F 22% 30.05 in 11.0 mi Calm Calm - N/A   Clear
1:56 AM 46.0 °F 13.3 °F 27% 30.06 in 10.0 mi Calm Calm - N/A   Clear
2:56 AM 44.8 °F 14.9 °F 30% 30.06 in 10.0 mi Calm Calm - N/A   Clear
3:56 AM 46.8 °F 14.7 °F 28% 30.04 in 10.0 mi North - - N/A   Clear
4:56 AM 45.5 °F 14.5 °F 29% 30.04 in 11.0 mi Calm Calm - N/A   Clear
5:56 AM 44.6 °F 14.4 °F 30% 30.06 in 10.0 mi Calm Calm - N/A   Clear
6:56 AM 42.3 °F 13.5 °F 31% 30.07 in 10.0 mi Calm Calm - N/A   Clear
7:56 AM 44.2 °F 13.6 °F 29% 30.07 in 10.0 mi Calm Calm - N/A   Clear
8:56 AM 49.3 °F 14.5 °F 25% 30.09 in 10.0 mi Calm Calm - N/A   Clear
9:56 AM 56.1 °F 15.4 °F 20% 30.07 in 9.0 mi Calm Calm - N/A   Clear
10:56 AM 61.5 °F 14.2 °F 16% 30.06 in 9.0 mi Calm Calm - N/A   Clear
11:56 AM 64.0 °F 14.4 °F 15% 30.04 in 9.0 mi Calm Calm - N/A   Clear
12:56 PM 68.0 °F 14.2 °F 13% 29.99 in 9.0 mi Calm Calm - N/A   Clear
1:56 PM 71.2 °F 12.7 °F 11% 29.95 in 9.0 mi Calm Calm - N/A   Clear
2:56 PM 71.8 °F 11.1 °F 10% 29.90 in 11.0 mi Calm Calm - N/A   Clear
3:56 PM 73.0 °F 11.7 °F 9% 29.85 in 8.0 mi Calm Calm - N/A   Clear
4:56 PM 74.1 °F 12.4 °F 9% 29.83 in 9.0 mi Calm Calm - N/A   Clear
5:56 PM 73.9 °F 12.6 °F 10% 29.83 in 10.0 mi Calm Calm - N/A   Partly Cloudy
6:56 PM 72.0 °F 12.0 °F 10% 29.83 in 10.0 mi Calm Calm - N/A   Partly Cloudy
7:56 PM 70.3 °F 11.5 °F 10% 29.83 in 10.0 mi Calm Calm - N/A   Mostly Cloudy
8:56 PM 69.8 °F 8.6 °F 9% 29.83 in 12.0 mi Calm Calm - N/A   Mostly Cloudy
9:56 PM 66.7 °F 7.9 °F 10% 29.81 in 12.0 mi Calm Calm - N/A   Mostly Cloudy
10:56 PM 67.6 °F 8.2 °F 10% 29.80 in 12.0 mi Calm Calm - N/A   Mostly Cloudy
11:56 PM 68.2 °F 8.4 °F 10% 29.78 in 12.0 mi Calm Calm - N/A   Mostly Cloudy